Wind_Speed
14 16 18 16 14 15 15 14 18 20 18 16 20 24 20 12 8 6 9 8 14 13 9 8 7 7 4 4 8 12 13 13 12 14 15 15 15 16 18 21 24 25 25 25 27 28 28 25 24 22 22 23 24 23 22 21 21 22 22 22 21 21 22 23 23 22 22 22 22 22 21 21 20 19 19 20 20 21 21 19 18 18 18 18 19 17 16
13 14 16 17 16 17 20 18 16 18 20 20 22 23 22 19 11 7 3 3 11 12 8 8 7 6 4 4 10 14 13 13 15 15 15 14 14 15 18 20 22 23 23 23 22 21 22 22 22 21 21 22 24 25 24 24 25 26 25 25 25 25 24 24 25 25 24 24 24 24 24 23 22 22 21 22 22 22 22 21 20 20 19 18 18 18 17
13 12 13 17 19 20 21 16 9 9 11 11 14 16 19 19 11 7 6 5 9 9 7 7 7 7 6 7 13 19 14 12 16 17 16 16 15 15 17 19 21 22 23 23 21 20 21 22 22 21 20 19 21 24 25 26 27 28 28 28 28 28 28 28 28 28 27 27 26 26 26 26 26 26 25 25 25 25 24 24 23 22 20 20 19 18 17
12 11 11 11 13 17 14 7 6 9 12 10 9 5 2 6 4 3 6 8 11 10 8 7 6 6 5 6 14 22 17 14 16 15 15 16 15 14 13 14 16 17 18 19 20 21 24 25 24 23 21 21 22 24 24 25 26 28 31 32 32 32 33 33 33 33 32 30 30 29 29 29 29 28 28 28 28 28 28 28 27 26 24 22 22 21 20
10 10 9 10 7 6 2 8 8 7 10 8 3 6 8 6 5 3 5 10 11 10 9 8 7 8 5 4 11 17 15 15 15 13 13 15 13 12 13 13 14 16 16 18 20 22 25 26 26 25 23 24 24 23 23 23 24 26 28 29 30 32 34 36 36 36 35 34 33 33 33 33 32 32 32 31 31 31 31 31 31 30 27 26 26 26 25
10 9 7 8 6 1 3 10 8 4 7 6 2 4 5 5 7 5 6 10 10 9 9 9 9 9 8 6 9 11 12 14 15 14 13 11 11 15 17 15 16 18 18 19 20 21 22 24 25 24 23 24 23 22 22 23 23 24 25 25 27 30 32 34 35 36 37 36 36 35 35 36 36 35 35 36 36 35 35 35 34 33 31 30 30 29 28
9 8 5 4 1 4 3 8 7 2 3 4 5 7 7 6 5 5 7 9 10 10 10 11 12 12 11 9 8 9 11 13 13 11 10 9 11 17 18 16 18 20 19 19 20 21 22 23 24 25 25 25 24 23 24 25 26 27 27 26 27 26 26 28 30 33 35 36 37 37 37 37 36 36 36 36 37 36 37 37 36 34 33 33 33 32 31
8 5 4 3 3 5 3 5 7 4 2 3 2 5 7 6 6 8 10 11 11 11 10 10 12 13 13 13 12 11 12 12 11 9 8 9 12 15 17 17 19 21 22 22 23 23 23 24 25 27 27 26 25 26 26 27 29 29 28 26 25 23 22 22 24 26 29 30 32 33 34 35 34 34 34 34 34 34 35 36 35 35 36 36 35 35 34
7 4 1 4 7 6 4 4 6 5 5 5 5 9 9 4 5 7 9 9 9 11 11 10 12 14 15 15 14 12 11 12 13 12 12 13 15 16 17 17 18 21 23 24 25 26 26 27 27 28 28 28 28 28 28 29 30 30 28 26 26 25 23 22 23 24 25 26 26 28 30 32 33 33 33 33 33 33 34 33 32 34 36 36 35 35 36
4 3 1 5 7 5 5 5 5 4 7 5 6 11 12 6 4 5 7 8 7 9 11 11 12 13 13 14 14 11 11 13 15 15 16 18 17 15 14 12 13 17 21 21 23 25 24 24 25 27 27 27 27 27 27 28 28 28 27 27 28 29 28 27 27 27 26 26 26 26 26 28 30 31 31 30 30 30 30 29 30 32 34 34 34 35 37
4 3 3 3 3 4 9 8 5 2 8 12 10 8 10 9 6 5 6 8 7 7 9 11 11 9 8 11 13 12 12 13 15 16 16 16 13 9 8 8 9 12 16 18 21 23 21 18 18 22 23 24 25 26 26 26 27 27 27 28 29 29 28 26 25 24 25 26 26 25 25 27 29 29 27 26 25 24 25 26 27 29 31 33 33 33 34
5 6 3 3 3 2 7 8 4 2 8 11 9 4 5 6 5 5 7 7 7 6 6 6 6 3 2 4 7 8 9 10 12 14 15 13 10 7 8 9 11 12 13 15 17 20 20 17 16 17 19 20 22 22 22 23 24 24 26 27 27 27 24 22 20 20 21 22 23 24 26 29 30 29 26 24 22 21 22 24 25 26 29 32 32 29 27
5 7 5 2 2 3 4 3 3 3 4 2 2 4 4 3 4 5 6 6 6 5 3 2 2 2 5 5 5 5 5 6 8 10 12 13 12 11 10 10 12 13 13 14 15 17 18 18 17 17 19 20 20 21 20 20 20 19 20 20 21 22 21 20 18 17 17 18 20 22 26 28 28 26 24 23 21 20 21 22 23 24 24 21 20 19 18
5 8 6 5 3 5 4 2 2 2 2 3 6 7 6 4 3 2 4 7 8 6 4 4 4 3 5 6 6 5 3 2 2 5 9 11 12 12 10 8 9 10 11 12 12 13 15 17 18 19 20 19 18 18 18 19 19 18 16 15 15 15 16 16 14 13 14 16 17 21 25 26 24 22 22 23 21 19 20 21 21 23 23 18 15 17 19
6 8 6 5 3 5 4 3 3 1 4 9 8 5 4 5 3 1 2 5 6 4 3 3 5 5 5 4 4 4 3 3 2 1 4 6 9 10 9 9 9 9 9 9 9 10 11 13 16 18 18 16 14 13 14 16 18 19 17 16 14 12 12 13 12 12 13 15 17 20 23 21 18 19 21 22 21 19 19 20 19 20 23 23 23 23 23
6 8 6 4 4 3 2 2 2 2 6 10 9 4 3 4 2 1 2 2 2 2 2 2 2 2 2 3 3 3 3 2 2 2 1 1 4 6 7 8 10 9 8 8 8 9 10 10 12 14 14 13 12 11 11 12 14 16 17 16 16 14 12 12 13 13 14 15 17 18 17 15 14 18 21 21 21 18 18 19 21 20 20 20 20 22 22
8 9 7 5 4 2 1 1 3 6 9 10 8 5 3 2 2 2 2 1 2 1 1 0 0 1 1 1 1 3 3 1 1 1 0 0 3 5 6 8 9 9 10 9 9 9 9 9 9 10 11 12 11 11 10 10 11 12 12 13 14 14 13 13 14 14 13 14 15 15 14 14 16 18 20 21 21 20 18 18 20 21 21 20 19 21 23
9 10 8 5 4 2 2 3 3 5 7 7 5 4 3 3 2 2 2 2 2 1 1 2 3 2 1 1 2 2 2 2 3 2 3 4 4 6 8 10 10 10 11 11 10 9 9 9 9 10 10 11 10 10 10 10 10 9 9 10 10 11 12 11 11 11 11 11 11 12 13 15 16 17 19 19 20 20 19 18 19 20 22 23 23 24 26
6 9 8 5 3 1 2 1 2 3 3 3 2 2 2 2 2 2 2 2 1 1 1 1 2 2 3 3 3 3 3 4 5 3 4 6 6 7 7 9 10 10 11 11 10 10 11 11 12 12 12 11 10 10 10 10 10 9 9 9 9 9 10 10 9 10 11 10 9 10 11 12 13 14 15 15 16 17 17 18 19 20 22 24 24 26 28
6 8 8 6 3 4 4 1 2 2 3 2 2 3 4 4 4 4 4 3 2 2 1 1 2 2 2 4 4 5 6 7 7 6 6 9 9 8 7 8 10 10 10 11 11 12 12 13 13 13 13 12 11 11 10 10 11 10 10 10 9 9 10 11 11 11 12 12 11 10 11 10 10 11 11 10 10 13 15 16 17 19 20 21 22 23 25
6 7 6 3 2 5 5 4 5 4 3 4 4 5 7 7 7 7 7 6 5 4 4 4 3 3 4 4 4 6 8 9 10 9 9 10 11 10 9 10 11 11 11 12 13 14 14 14 14 14 13 13 12 12 11 11 12 12 11 11 11 12 12 12 13 14 14 14 14 13 13 12 10 11 11 10 9 10 11 11 13 15 16 18 20 21 22
7 8 8 5 5 7 6 6 6 5 5 5 5 6 9 9 9 9 10 9 8 7 7 8 7 6 6 5 5 8 9 10 11 11 11 12 13 13 13 13 13 13 14 14 14 15 16 16 16 16 15 15 14 14 13 13 13 13 13 13 13 14 14 14 15 15 15 15 15 15 15 15 14 14 14 12 11 12 11 11 11 12 12 14 16 16 17
10 12 10 7 8 10 9 6 4 4 5 6 6 7 9 10 10 10 11 11 10 9 9 10 10 10 9 8 9 10 10 10 11 12 13 13 14 15 15 16 15 15 16 16 17 17 18 19 19 19 18 18 17 16 16 16 16 15 16 16 16 17 17 18 18 18 17 16 17 17 17 16 16 17 17 16 15 15 14 14 14 13 13 13 13 13 13
10 12 12 10 9 10 10 6 5 5 6 8 9 8 8 10 11 11 11 11 12 11 11 11 12 11 11 12 12 11 11 12 12 13 14 14 15 16 17 18 17 17 17 18 19 19 20 21 21 21 21 21 20 20 19 19 20 19 19 19 19 18 18 19 19 19 18 17 17 18 18 18 18 18 19 19 19 18 18 18 18 17 17 16 16 16 16
11 13 13 10 10 11 10 8 9 8 8 10 12 9 8 9 10 10 11 11 12 12 12 12 12 12 12 14 13 13 13 14 14 14 13 14 15 17 18 19 19 19 20 21 22 22 22 23 24 25 26 25 24 23 23 23 23 23 23 22 22 21 20 20 19 19 19 19 19 18 18 18 18 18 19 20 20 20 20 21 21 21 20 20 21 21 20
15 14 11 8 10 12 10 8 11 10 9 11 11 9 8 8 9 10 11 11 12 13 12 12 12 12 12 14 15 15 16 16 17 16 15 14 15 17 19 21 21 21 23 24 25 25 25 25 26 27 28 28 27 26 26 26 26 26 26 25 25 24 23 23 22 22 21 21 21 21 20 20 20 20 20 20 20 20 21 22 22 22 22 22 23 23 23
14 14 10 7 8 10 9 8 10 10 9 9 9 9 9 8 8 9 10 11 12 12 12 12 12 11 12 13 13 14 16 17 18 18 17 17 16 17 20 23 23 22 24 26 27 27 27 27 28 28 29 29 29 29 29 29 29 29 29 28 27 26 25 25 25 25 25 25 24 24 24 24 24 24 24 23 23 23 22 22 22 23 23 23 24 24 25
12 11 9 7 8 9 10 9 9 10 9 9 10 11 10 9 9 9 9 11 12 12 12 13 12 12 13 14 13 13 15 16 16 17 18 18 19 19 20 22 22 23 24 26 27 28 29 29 29 29 29 29 29 30 30 31 31 31 30 29 29 28 27 27 26 26 27 27 27 27 27 26 26 26 25 25 26 26 25 25 25 25 24 24 24 24 25
10 10 11 10 10 10 10 9 9 10 11 10 10 10 9 9 10 8 6 7 10 11 11 12 11 11 13 15 14 13 14 15 16 16 17 18 20 21 21 21 22 24 26 27 27 28 28 29 31 32 32 31 29 29 28 29 30 30 30 29 29 28 27 27 27 26 26 27 27 28 28 27 27 27 26 26 26 26 27 28 28 28 27 27 26 25 25
9 10 10 10 9 9 10 10 9 10 11 10 9 9 8 8 9 7 4 5 9 13 14 14 13 13 14 15 15 15 15 16 17 17 17 18 19 20 22 22 23 25 27 29 29 28 27 28 31 32 33 33 31 30 29 28 28 29 29 28 28 27 27 26 26 26 25 25 26 27 27 27 27 27 27 28 27 27 27 28 29 29 29 29 29 28 28
8 8 8 8 8 8 9 9 8 8 9 9 9 9 8 8 8 8 8 10 12 15 16 16 16 16 16 16 16 16 17 18 18 18 19 19 20 20 21 23 24 25 25 27 28 29 28 28 29 31 33 33 32 30 28 28 28 27 28 28 27 27 27 26 26 25 25 25 24 24 24 24 25 25 26 27 28 28 28 29 29 29 29 30 30 30 31
7 7 7 7 7 7 8 8 8 7 7 7 7 7 8 9 9 9 10 12 14 16 17 17 18 18 19 18 17 17 18 19 19 19 20 21 22 23 23 24 25 26 26 27 28 29 29 29 29 31 32 34 33 31 29 28 28 29 29 29 28 27 27 26 26 26 26 25 25 24 23 23 23 24 25 26 26 27 27 28 28 29 29 30 31 31 31
7 7 7 7 6 6 6 6 6 7 6 7 8 9 10 11 12 12 13 15 16 17 18 19 19 19 19 19 18 18 19 20 21 21 22 23 24 25 26 26 27 27 28 28 29 30 31 31 31 31 32 34 35 33 31 30 30 30 30 30 30 29 29 28 27 27 27 26 26 25 25 25 25 25 25 25 25 25 26 26 27 27 28 29 31 31 31
7 8 8 8 7 7 6 6 7 8 9 9 11 12 12 13 14 15 16 16 16 17 18 19 19 19 20 21 22 23 23 24 24 25 25 26 26 27 28 28 28 29 29 30 29 29 30 31 33 33 33 34 34 33 31 32 32 32 32 32 32 32 31 29 29 29 28 27 27 26 26 26 26 26 26 26 26 26 26 26 26 26 27 28 29 30 31
8 9 9 8 8 8 8 8 10 10 11 11 12 14 15 15 15 16 17 17 17 18 19 20 21 22 23 25 26 26 27 27 28 28 29 30 30 31 32 32 32 32 33 33 32 31 30 31 32 33 33 33 34 33 32 32 33 34 33 34 35 35 35 34 31 29 28 29 29 28 27 27 27 28 28 28 29 29 29 28 28 27 27 28 29 30 31
9 9 9 8 8 8 8 9 10 11 12 13 15 16 17 18 19 19 20 21 22 23 24 25 26 27 28 28 29 30 30 31 32 32 32 33 33 33 34 35 36 37 37 37 37 36 34 32 31 32 32 32 33 35 34 33 33 35 36 37 37 37 37 38 35 32 30 31 32 32 31 30 29 29 29 29 30 30 30 30 30 30 29 29 29 30 31
10 9 9 9 9 8 9 11 12 13 15 16 17 18 19 20 21 22 23 24 25 26 28 28 28 29 30 31 31 32 32 33 33 33 34 34 35 34 34 35 36 37 38 38 38 37 36 35 33 33 33 34 35 36 36 35 33 33 35 37 37 37 38 39 38 35 34 34 35 35 34 33 31 31 31 31 31 31 31 31 31 32 31 31 31 31 32
10 9 9 9 10 11 13 14 14 15 16 17 18 19 20 21 22 22 23 24 25 26 28 28 29 30 31 31 32 32 32 32 32 33 33 33 33 34 35 35 36 36 37 37 36 36 36 36 35 35 36 36 36 37 38 37 35 32 31 31 32 34 36 36 35 34 35 36 38 38 36 34 33 34 35 34 34 34 33 32 32 33 33 33 33 33 33
9 9 10 11 12 14 15 16 16 17 17 18 20 21 21 22 23 23 24 25 26 27 28 28 29 30 31 31 31 31 31 30 30 30 29 30 30 31 32 32 33 33 34 34 35 35 35 35 36 36 36 37 37 37 38 39 38 37 34 31 30 31 32 32 31 32 35 38 39 39 37 35 34 34 35 36 37 37 36 35 34 34 34 34 34 34 34
10 11 12 13 15 17 18 19 19 19 18 19 20 22 22 23 23 24 24 26 27 28 28 29 29 30 29 29 29 29 28 28 27 27 27 27 28 29 29 29 29 28 28 28 30 32 32 33 34 35 35 36 36 37 38 39 39 38 37 34 32 31 31 30 30 32 35 37 38 37 35 33 33 33 35 35 37 38 39 39 38 37 37 36 35 35 35
12 13 14 16 18 21 21 21 20 19 19 19 20 21 22 23 24 24 25 26 26 27 27 27 27 27 27 26 26 26 26 26 26 26 27 27 27 28 28 28 26 25 25 26 28 29 30 30 31 31 33 34 36 37 38 37 35 35 34 32 31 31 32 32 32 32 34 35 35 34 34 33 33 34 35 36 38 39 40 40 40 40 39 38 38 37 36
15 17 18 19 20 21 20 18 18 19 19 20 20 21 22 23 24 24 25 25 25 25 24 24 24 24 24 24 24 24 24 25 25 25 26 26 27 28 28 27 25 25 26 27 28 28 28 28 28 29 31 33 33 34 33 33 33 33 32 29 30 32 33 34 34 34 33 32 32 33 33 32 32 33 35 37 38 38 37 37 38 38 38 37 38 38 38
17 19 20 19 18 17 17 17 17 19 20 21 21 21 22 23 23 23 24 24 23 23 22 22 22 22 23 23 23 23 23 23 24 24 25 26 26 26 26 26 25 26 27 28 28 28 28 29 29 28 28 29 30 30 30 30 32 34 33 32 32 32 31 31 33 33 32 31 32 32 32 31 31 33 35 36 36 36 35 35 35 35 35 35 36 37 37
17 17 17 16 15 15 16 16 17 18 20 22 22 22 22 22 22 22 22 22 21 21 20 20 21 21 21 21 21 21 21 21 22 23 24 24 23 23 23 25 26 25 25 26 27 28 28 29 29 28 26 26 27 29 29 29 29 30 31 31 32 32 32 34 35 35 33 33 32 32 31 32 32 33 35 34 34 33 33 34 35 35 34 33 33 33 34
14 14 14 14 14 14 15 17 18 18 20 21 21 21 20 21 21 21 21 20 20 19 20 20 20 20 20 20 20 19 20 21 21 21 21 21 21 21 21 23 25 25 23 24 25 26 26 27 27 26 26 26 27 28 29 30 30 31 32 33 32 31 33 36 36 34 33 33 33 32 32 33 33 34 34 33 32 31 32 33 33 34 34 33 33 33 34
13 13 13 13 14 14 15 17 18 19 19 20 20 19 19 20 20 20 19 19 19 18 18 19 19 19 19 19 19 19 19 19 20 20 19 19 19 20 20 22 24 25 24 24 24 24 23 23 23 24 24 25 26 27 28 30 31 32 33 31 30 29 31 32 31 30 29 30 32 34 35 34 33 34 34 33 32 32 32 32 33 33 34 34 35 35 35
13 13 13 13 13 15 15 16 17 18 19 19 19 18 18 18 18 18 17 17 17 17 17 17 18 18 19 18 18 18 18 17 18 19 18 18 19 20 20 21 22 23 23 24 24 23 22 23 23 23 24 25 25 26 26 28 29 30 29 28 27 28 29 29 28 27 27 29 32 35 35 33 31 31 32 33 33 33 32 32 33 34 35 35 35 34 33
13 13 13 13 14 15 16 16 17 17 17 17 17 18 18 17 16 16 16 17 16 16 16 16 16 16 17 17 17 17 16 16 17 17 17 17 18 18 19 20 20 20 21 23 24 24 25 25 24 23 22 23 23 24 25 27 28 28 29 28 27 26 27 27 27 27 28 30 33 33 31 29 28 29 30 31 31 31 30 30 31 32 33 32 32 31 30
13 13 14 14 15 16 16 16 16 16 16 16 16 16 16 16 15 15 15 15 14 14 14 14 14 14 15 15 15 15 15 15 15 15 15 15 16 16 17 18 18 19 19 20 21 22 23 22 21 19 19 19 20 22 25 27 27 28 28 27 25 24 25 27 27 27 28 29 29 28 27 27 28 29 30 30 31 31 30 30 30 30 30 29 29 29 29
12 13 15 16 16 15 15 16 16 15 14 14 14 14 14 15 14 13 12 12 12 13 13 14 13 13 13 14 15 14 14 15 16 15 14 13 13 12 13 13 14 15 16 17 17 18 18 18 18 17 18 18 19 21 23 24 24 24 25 25 25 24 25 26 26 26 26 27 27 27 27 28 29 29 28 28 29 29 29 29 29 29 29 29 29 29 29
12 14 15 16 16 15 15 15 15 14 14 14 13 12 12 12 12 11 11 12 13 13 14 14 13 12 12 13 14 15 15 15 15 16 15 14 12 11 11 12 12 12 12 12 13 14 14 14 13 14 16 18 19 19 19 19 19 19 20 22 25 26 25 25 24 25 25 26 27 27 28 28 28 28 28 28 29 29 29 29 29 29 29 29 29 29 28
14 14 15 14 14 14 14 13 13 13 13 12 10 9 9 10 10 10 10 11 13 13 13 14 14 14 13 13 13 14 15 15 15 14 14 14 14 13 12 12 13 13 12 12 11 12 12 12 11 11 12 13 15 15 15 14 14 15 16 19 21 23 24 23 23 23 23 24 25 25 26 26 26 26 26 26 27 27 27 27 27 27 27 27 27 27 26
Wind_Direction
261 263 264 269 270 267 266 243 227 239 240 216 217 225 225 235 231 131 89 120 151 153 165 173 171 178 199 224 199 182 180 184 184 182 184 184 184 190 191 192 196 199 202 207 211 211 211 215 221 226 228 226 224 225 225 223 226 230 235 239 239 238 240 241 242 242 242 243 243 243 246 247 245 245 246 247 247 247 248 250 249 248 248 252 258 258 257
269 263 256 254 247 249 265 259 232 231 237 232 233 227 219 228 221 155 137 151 139 150 180 189 197 204 204 215 199 188 182 181 181 176 173 179 185 188 191 194 199 206 209 212 214 214 213 217 219 218 220 226 230 230 226 224 226 228 232 237 241 244 246 247 247 245 244 244 246 247 248 249 249 247 247 247 247 248 249 250 252 252 249 248 251 253 254
265 263 254 243 237 244 259 266 265 271 272 267 262 242 225 234 230 166 174 171 136 142 168 184 202 207 221 238 206 191 182 180 185 178 167 174 180 179 186 194 200 208 214 216 218 215 211 209 206 205 209 219 229 233 231 229 230 232 234 236 240 243 245 246 247 246 246 246 247 248 249 250 251 251 251 251 250 249 250 250 250 250 250 247 245 249 252
251 251 267 265 245 241 255 294 340 330 333 346 353 7 182 224 244 176 163 143 136 148 165 182 196 200 244 254 200 190 186 181 182 177 173 180 179 170 174 184 192 200 204 208 208 204 202 201 201 204 207 213 224 235 238 236 235 236 238 240 242 244 244 243 242 242 243 245 247 250 252 253 254 255 255 255 254 252 250 250 249 247 245 244 243 245 246
255 249 279 318 311 235 265 1 342 323 338 335 344 58 73 99 108 128 157 150 154 168 176 188 197 197 204 191 182 188 190 182 180 187 191 182 173 178 182 179 185 190 189 194 200 203 207 211 212 214 216 219 226 233 236 235 233 234 237 241 244 246 246 245 242 241 243 244 247 250 253 256 258 259 258 257 256 255 252 251 250 246 243 243 243 243 244
271 276 286 322 336 154 54 3 334 312 357 355 154 114 72 96 112 113 133 147 159 172 180 187 187 184 181 176 178 182 185 188 191 197 196 179 175 196 196 187 195 199 194 194 199 204 210 213 211 211 213 215 217 219 220 222 224 229 235 243 250 253 252 249 246 244 245 247 248 250 253 255 257 260 261 261 260 257 255 253 251 248 244 241 242 241 242
268 281 285 298 355 135 95 16 13 22 14 33 101 98 77 90 123 150 153 154 164 171 177 182 179 174 175 177 179 177 183 196 197 189 183 179 194 209 206 199 208 210 203 199 200 203 208 209 207 206 207 210 216 221 223 223 226 232 240 251 261 261 253 247 245 245 246 248 250 253 254 254 255 258 261 263 263 261 258 256 255 253 250 245 242 242 243
248 256 292 277 168 148 137 52 41 41 30 25 58 69 67 91 128 145 150 156 174 184 183 179 178 180 180 178 179 183 190 199 200 190 184 188 201 214 213 209 214 217 212 208 208 211 213 212 212 212 215 222 230 236 240 241 242 246 250 253 256 253 246 245 248 249 250 251 252 254 256 257 260 261 262 263 264 263 260 259 258 258 256 252 246 243 243
236 234 29 116 140 143 135 83 64 83 85 50 58 80 81 110 144 149 165 163 161 173 176 176 185 193 194 188 183 182 188 198 201 200 204 209 216 224 224 217 219 226 224 219 219 222 225 225 227 227 231 237 243 246 248 250 251 254 253 247 245 244 245 249 254 255 256 257 256 256 258 262 264 263 262 261 261 260 260 260 259 258 258 255 251 249 248
225 217 162 144 151 172 174 117 82 131 130 93 89 91 81 81 105 133 183 180 159 161 164 175 202 215 205 185 169 164 176 185 186 188 195 202 209 222 230 224 223 233 237 235 231 230 230 231 234 237 239 242 243 246 248 249 251 252 250 247 245 245 246 251 257 259 259 260 261 261 262 264 263 261 259 258 258 261 261 260 258 257 257 257 256 255 255
195 190 214 219 200 198 182 146 91 144 150 136 136 107 67 57 68 96 152 172 184 182 166 175 199 211 201 179 169 170 175 172 171 178 188 197 205 223 244 242 238 241 241 241 242 241 238 239 241 242 245 246 246 248 249 249 250 249 247 246 246 246 248 252 258 259 257 256 258 259 259 259 257 256 255 255 255 257 257 256 253 253 256 256 255 254 256
192 179 195 262 292 238 195 167 117 135 155 149 157 149 73 62 67 83 117 145 173 190 191 204 209 181 104 140 160 170 176 174 176 182 187 198 215 247 268 261 257 255 244 237 243 247 248 252 256 255 256 258 259 258 255 250 249 248 246 245 245 245 248 251 252 254 255 256 255 255 254 255 256 256 257 258 257 255 254 254 251 252 255 250 242 244 253
205 181 163 156 227 232 228 204 173 183 196 203 174 155 140 107 86 89 95 105 120 140 157 225 265 2 38 58 95 133 168 186 198 203 205 214 229 249 264 260 250 251 248 241 243 249 251 257 265 269 271 272 272 271 265 256 251 248 247 247 246 244 244 245 245 244 247 251 252 253 252 253 254 257 259 261 261 259 261 261 257 257 257 242 226 234 253
189 183 159 122 171 228 245 241 226 196 153 109 106 129 150 152 139 120 83 81 86 89 87 87 92 85 64 66 89 108 122 141 179 203 211 218 226 232 237 235 230 233 234 231 231 237 245 255 263 267 268 269 271 272 267 259 252 247 246 249 249 244 241 240 239 234 231 235 243 251 253 254 255 256 258 261 262 262 264 264 258 255 253 243 235 246 255
114 142 141 125 181 239 241 225 236 218 141 128 119 130 171 176 182 221 50 72 80 82 80 76 88 95 82 63 73 82 71 57 63 122 183 199 212 215 213 212 214 216 219 224 230 234 241 251 259 262 262 261 261 265 267 262 254 248 247 250 253 251 243 238 238 238 232 228 233 242 250 258 260 254 254 258 261 263 265 261 255 252 250 246 241 242 245
98 129 144 156 181 205 208 207 203 140 130 131 128 139 177 186 203 359 46 45 38 61 75 61 70 90 66 36 28 20 17 30 31 14 41 192 215 215 210 210 212 217 226 236 245 250 251 255 258 257 255 256 256 259 264 261 256 253 252 253 255 257 253 246 244 245 242 237 237 241 247 252 248 244 247 254 257 260 262 259 255 253 254 251 245 242 243
105 129 146 158 166 156 101 157 158 141 142 152 161 179 213 245 295 19 70 58 21 33 71 102 249 290 355 350 311 317 322 320 293 273 155 181 241 237 233 230 228 232 239 243 246 251 254 258 260 254 249 252 256 255 253 252 252 254 257 258 258 258 256 255 252 249 247 244 244 247 249 247 243 242 247 252 255 256 259 260 260 258 258 259 255 251 248
100 111 120 134 158 168 134 140 154 153 158 174 191 213 252 278 308 360 51 81 77 90 147 195 222 221 189 210 268 288 266 258 270 242 177 180 227 248 256 261 258 249 245 243 240 241 243 248 252 249 245 246 247 244 243 244 244 245 250 255 257 253 249 248 249 251 252 249 245 247 249 250 252 254 254 255 258 259 260 261 264 265 265 265 262 255 249
97 109 116 125 144 102 68 121 187 185 182 197 218 232 254 283 309 333 2 53 68 86 143 206 246 222 184 193 219 228 227 238 255 244 185 184 217 243 253 261 262 255 250 248 243 239 240 244 247 247 244 240 236 235 236 238 241 244 245 245 246 246 246 245 245 249 255 255 250 246 246 248 252 257 261 264 266 268 268 267 267 267 263 261 264 262 254
134 144 147 148 137 96 87 118 213 210 212 235 261 266 265 266 272 287 300 310 310 306 298 293 299 286 241 222 225 234 238 238 242 235 201 197 219 238 244 248 252 252 253 255 254 250 248 248 248 248 245 242 240 240 239 240 243 247 248 246 246 249 253 256 255 254 256 257 256 253 249 245 243 248 255 259 262 267 271 272 271 268 260 255 259 264 263
150 165 161 139 102 119 147 214 254 266 257 252 259 267 273 277 279 279 280 277 276 278 277 274 280 285 274 256 245 245 242 238 237 234 223 222 232 242 247 249 249 248 249 254 258 258 255 253 251 248 246 248 250 250 252 254 254 255 256 258 259 260 261 261 261 260 259 259 259 261 262 261 258 257 257 254 252 260 267 269 268 265 260 257 257 260 263
150 162 165 147 140 161 188 243 269 275 275 271 268 271 278 282 284 282 282 281 278 273 271 269 266 266 268 269 263 254 249 247 245 239 234 236 240 244 247 249 246 245 246 248 253 256 257 255 254 252 253 255 257 259 263 266 267 269 270 272 273 275 275 275 272 269 267 265 263 263 264 265 265 266 265 261 256 255 256 259 261 261 261 263 263 261 261
162 173 185 170 168 198 223 247 267 273 286 291 288 286 287 287 287 287 287 288 287 281 274 271 268 264 261 262 265 263 261 259 256 248 245 247 248 248 250 250 247 244 243 244 248 252 255 255 255 255 256 256 256 259 263 267 269 271 273 275 278 280 282 284 283 280 275 272 270 268 267 266 266 267 267 265 261 258 256 254 254 255 257 261 263 263 260
180 198 211 191 185 222 242 252 266 274 285 290 289 287 283 283 286 288 287 288 289 285 278 274 272 268 263 260 261 263 262 261 261 259 259 259 256 254 254 254 251 248 245 244 245 247 249 253 254 255 256 255 254 255 257 260 263 265 268 270 273 275 277 280 281 282 280 277 275 273 272 270 269 268 268 268 266 264 262 259 255 254 253 253 255 256 254
210 224 229 213 214 240 256 267 272 270 271 280 286 290 285 281 282 285 285 286 284 282 280 277 273 269 264 260 258 257 257 260 262 262 264 263 259 255 255 256 256 254 253 251 248 246 247 250 253 254 254 254 253 254 254 257 260 262 265 267 269 271 273 273 273 275 277 278 279 278 278 276 274 272 270 269 268 267 266 264 261 259 257 255 254 255 254
229 239 247 241 243 252 259 270 277 279 280 283 286 291 290 285 283 284 287 288 284 282 280 278 275 272 266 261 258 257 258 260 261 262 263 264 260 256 255 256 255 255 256 256 254 250 250 253 256 258 258 258 257 258 258 258 260 261 263 265 266 267 269 271 271 271 272 273 276 278 278 279 279 278 276 275 273 270 268 267 267 265 263 261 259 258 257
237 247 253 253 255 258 257 257 269 282 290 291 292 294 292 290 287 285 286 285 281 281 282 282 281 278 272 264 259 257 258 259 261 262 262 263 261 257 256 258 257 254 253 255 255 253 253 255 258 260 261 261 261 261 262 262 262 261 262 262 263 264 265 267 269 270 271 274 276 277 278 278 279 279 279 279 278 276 274 272 271 270 268 267 266 265 263
237 242 237 224 229 248 256 258 265 277 286 292 296 296 296 293 287 284 288 289 282 276 275 277 280 282 280 276 269 262 258 257 258 259 259 259 260 260 259 261 261 259 258 259 258 257 257 258 260 260 262 263 263 262 262 263 263 262 262 262 262 263 264 266 267 268 270 272 274 276 277 277 277 277 277 277 278 278 278 277 275 273 271 270 270 270 269
232 230 230 229 233 245 259 266 270 276 283 289 290 289 290 291 288 290 302 305 294 285 276 273 275 278 278 278 276 272 266 262 259 257 256 256 257 259 260 260 260 260 261 263 263 260 259 261 262 263 263 264 264 263 262 262 263 263 264 263 264 265 266 268 269 270 271 271 272 273 275 275 276 277 277 277 277 277 276 276 276 276 275 273 270 269 269
233 227 231 239 242 247 258 266 271 277 283 288 287 284 281 280 281 283 274 262 274 283 287 288 287 282 277 277 279 277 272 267 263 261 259 257 257 258 259 260 259 259 260 262 264 263 261 261 262 263 264 265 265 263 263 263 262 262 262 262 264 266 268 270 272 273 274 274 274 274 275 275 275 276 276 276 276 276 275 274 274 273 274 274 272 271 269
238 234 236 242 246 250 259 266 270 272 277 285 290 289 282 271 269 272 271 267 271 279 286 291 290 285 280 280 279 276 273 271 269 265 261 259 258 258 258 259 260 260 261 263 265 266 265 263 261 261 263 264 264 263 263 264 263 261 262 263 265 267 269 271 273 274 275 276 276 276 275 275 274 273 273 272 271 271 271 271 271 271 271 271 271 271 272
238 242 248 252 258 265 268 270 274 272 268 277 288 290 285 284 284 283 283 283 283 283 285 288 287 285 283 282 279 275 273 273 272 271 268 264 261 260 259 259 260 260 261 262 264 266 267 266 263 262 261 263 263 262 261 261 261 262 263 265 266 268 270 272 274 275 276 276 276 276 275 275 273 272 270 269 269 268 268 268 269 270 270 270 270 270 271
244 251 257 258 262 266 263 266 280 283 276 279 287 287 284 288 291 290 286 285 285 284 285 286 285 285 285 283 279 277 277 276 276 276 275 272 269 266 264 262 262 262 261 261 262 263 264 264 264 264 263 264 265 263 260 260 262 264 266 267 267 268 271 273 274 275 275 275 275 275 275 274 274 273 272 270 270 270 270 271 271 271 271 270 269 269 270
240 248 252 253 256 258 253 253 267 276 277 280 285 286 286 288 290 288 286 286 286 285 285 285 286 286 285 283 282 282 282 282 280 278 275 274 272 269 267 265 264 263 264 262 261 260 261 262 264 264 264 266 267 262 257 258 261 263 265 267 268 268 269 271 273 274 275 275 275 275 275 275 275 275 276 275 273 271 270 271 271 272 273 272 270 269 269
235 241 247 250 251 252 254 259 266 271 276 280 283 284 285 286 286 285 285 286 287 286 285 284 284 284 283 283 283 283 283 282 281 280 278 275 272 270 268 266 264 264 264 264 263 262 261 262 264 263 262 264 266 263 260 260 261 261 262 264 266 267 268 268 269 271 273 275 276 277 276 276 276 277 278 277 275 273 271 270 270 270 271 273 273 272 271
237 241 244 246 247 250 256 266 272 275 277 280 282 284 284 283 282 282 283 284 284 283 281 280 281 282 282 282 282 282 282 281 281 280 279 277 275 272 270 268 266 265 264 264 265 265 264 262 263 262 262 262 264 266 267 266 262 258 257 258 260 263 266 267 267 268 269 272 274 275 276 276 276 276 275 274 272 271 271 271 270 269 269 270 271 272 273
239 240 238 236 242 255 268 276 280 281 281 280 280 281 281 281 281 281 281 282 282 281 281 281 282 283 283 282 281 281 280 280 279 278 277 276 276 275 272 270 268 267 265 265 265 265 264 263 262 261 261 260 259 260 263 265 262 257 254 253 255 258 262 265 268 270 271 270 271 271 273 274 275 274 273 271 269 268 269 270 270 271 271 270 271 271 272
235 232 233 239 253 269 279 281 280 279 279 280 281 281 281 281 283 283 284 283 283 283 284 285 285 285 284 284 284 283 282 281 280 278 277 276 275 274 273 271 270 268 267 266 265 263 262 262 260 259 259 259 258 258 260 263 263 261 258 257 256 256 258 263 267 270 271 270 269 268 270 271 271 271 270 269 267 266 266 267 269 271 271 271 271 272 272
230 233 244 258 271 278 280 279 278 278 279 282 284 285 286 287 287 287 287 287 287 287 288 289 288 288 287 286 286 285 284 284 282 281 279 278 276 274 273 273 271 270 269 267 266 264 262 261 259 257 257 258 259 259 259 259 259 260 261 259 256 255 257 261 264 265 265 266 266 268 269 270 269 269 268 269 269 268 267 267 267 268 268 269 270 271 272
240 252 263 272 278 280 279 278 279 280 281 282 284 285 286 288 288 289 289 289 289 290 290 289 288 288 288 288 288 287 286 285 283 282 280 279 277 276 275 274 273 273 272 269 266 264 263 261 259 257 256 256 257 256 257 258 259 257 255 253 253 255 258 259 259 260 263 265 267 268 270 270 268 267 266 266 267 267 268 269 270 269 269 268 269 270 271
257 267 274 278 280 281 282 282 282 283 284 284 285 286 288 289 290 290 290 290 290 290 290 290 290 290 291 291 290 289 288 286 284 282 281 280 279 277 276 274 273 271 269 266 263 262 261 261 260 258 256 255 255 254 254 257 258 256 252 250 252 255 257 258 257 259 262 265 267 268 269 269 269 268 268 267 267 267 268 270 271 271 271 270 268 269 270
269 275 278 279 279 278 279 282 285 288 290 290 290 290 291 291 291 291 290 290 291 292 293 294 294 295 295 294 293 291 290 288 286 284 282 281 279 278 277 275 272 268 265 263 262 262 262 261 260 258 256 255 255 255 255 256 258 259 258 256 254 253 254 257 259 260 261 263 264 266 267 268 269 269 270 270 270 271 272 272 271 271 272 271 270 269 269
275 277 277 277 277 278 281 286 290 292 293 293 293 293 293 292 292 292 293 294 296 297 297 298 298 298 297 297 296 295 294 292 289 287 285 282 279 277 275 273 270 266 264 263 262 261 260 259 257 258 259 259 259 258 258 257 258 259 259 258 256 256 257 260 262 261 261 260 260 261 263 265 267 268 268 269 271 273 275 276 275 273 273 273 272 271 271
274 274 274 277 280 283 287 291 292 292 292 293 294 294 293 292 293 295 298 300 301 301 301 302 302 302 302 301 300 299 298 296 293 291 288 286 281 275 271 269 267 265 264 264 263 261 261 262 262 262 263 262 259 257 257 258 258 258 257 256 256 259 261 263 263 263 261 259 258 258 260 262 264 265 266 268 270 273 275 276 277 277 276 276 275 275 274
276 276 277 281 285 288 290 292 293 292 292 292 293 293 295 296 299 302 303 303 304 304 305 305 305 304 304 303 302 301 300 297 294 291 289 288 285 278 271 268 268 267 267 267 267 265 264 264 264 264 264 261 258 257 257 258 258 257 258 259 261 263 265 265 264 263 261 259 258 258 259 260 261 263 265 267 269 270 271 272 274 276 277 277 277 276 275
282 281 283 286 290 292 293 293 294 293 292 291 292 295 298 300 302 303 304 304 306 307 307 308 308 309 309 309 308 306 303 298 294 291 286 281 279 277 272 268 268 268 268 268 269 269 266 265 265 266 265 264 262 260 260 259 258 257 259 263 267 266 263 260 260 261 261 261 260 259 259 259 260 263 266 268 268 268 268 269 270 272 273 275 275 275 276
287 286 290 295 296 295 294 294 294 294 292 291 294 298 300 301 303 304 306 308 309 310 311 313 315 316 318 318 317 315 309 302 296 295 291 283 277 274 273 271 270 270 269 268 268 267 267 268 269 269 268 265 261 259 259 260 260 259 259 262 265 262 258 258 260 261 259 258 259 260 261 262 264 266 268 270 270 269 269 268 268 268 269 271 273 274 274
291 293 299 301 298 296 296 295 293 292 291 293 297 300 302 303 305 308 310 311 312 313 315 318 321 323 325 327 327 324 320 313 305 300 298 294 288 283 278 276 275 273 271 270 267 266 266 269 272 273 272 269 265 260 258 260 263 262 259 256 257 257 257 257 256 255 255 258 263 266 267 268 267 266 267 269 271 271 270 270 269 269 270 271 272 273 274
294 298 301 299 297 297 298 295 292 291 293 296 299 302 303 305 309 311 311 312 315 319 322 324 325 328 330 332 333 335 335 333 326 316 306 299 296 293 289 285 282 278 276 274 272 270 269 268 268 269 269 268 265 262 259 260 264 267 263 254 248 249 254 256 256 257 261 265 267 267 267 266 264 263 264 266 268 268 268 268 269 271 273 274 275 276 276
294 296 297 296 298 300 298 295 294 295 298 299 301 304 306 307 310 313 313 315 321 326 327 325 325 329 333 335 336 338 343 346 346 342 334 320 311 306 304 299 293 287 281 277 276 275 274 271 269 267 266 264 264 266 265 263 265 271 269 258 248 246 250 254 256 259 262 264 264 263 264 265 266 266 267 267 268 268 268 270 272 273 275 276 277 278 278
291 292 293 296 300 301 298 295 296 298 300 302 304 308 311 314 316 318 321 323 326 327 326 324 323 326 331 334 335 338 343 347 349 351 353 353 348 341 334 329 324 318 308 297 288 284 283 280 276 269 263 261 263 269 269 265 264 268 270 264 256 249 248 250 253 256 259 262 265 265 265 266 267 268 268 270 270 270 271 272 273 274 275 276 277 278 278
288 288 289 293 297 297 295 295 297 298 299 301 306 314 320 322 321 320 320 321 320 320 320 321 320 321 326 330 333 336 341 344 346 347 352 357 359 357 354 352 351 347 339 326 312 298 289 284 279 273 267 265 268 271 272 271 269 269 269 266 259 251 246 248 254 258 261 264 266 266 267 268 269 269 270 271 271 272 272 273 273 274 275 276 277 277 276
Height
3138 3138 3138 3137 3136 3135 3134 3135 3136 3135 3134 3136 3137 3138 3139 3140 3142 3143 3145 3146 3148 3151 3153 3153 3156 3158 3158 3158 3158 3157 3156 3157 3157 3158 3159 3160 3162 3164 3167 3171 3175 3178 3180 3182 3183 3185 3187 3189 3191 3192 3194 3195 3197 3199 3200 3202 3203 3204 3206 3206 3207 3209 3211 3212 3213 3214 3215 3216 3217 3218 3219 3221 3223 3224 3225 3226 3227 3227 3228 3229 3231 3232 3233 3234 3235 3236 3237
3138 3138 3138 3138 3138 3136 3134 3134 3136 3137 3137 3137 3136 3136 3137 3140 3141 3140 3141 3144 3147 3150 3153 3153 3155 3156 3156 3156 3157 3157 3156 3156 3156 3157 3158 3160 3162 3164 3166 3169 3172 3175 3177 3180 3182 3184 3186 3188 3189 3190 3191 3193 3195 3197 3199 3200 3201 3202 3204 3205 3206 3208 3209 3210 3211 3212 3213 3214 3215 3216 3218 3219 3220 3222 3223 3224 3225 3225 3226 3228 3229 3230 3231 3232 3233 3234 3235
3137 3137 3137 3137 3138 3137 3134 3134 3134 3134 3135 3134 3134 3134 3136 3139 3141 3139 3138 3142 3146 3149 3152 3153 3154 3154 3155 3155 3156 3156 3157 3158 3156 3155 3157 3160 3162 3164 3166 3168 3171 3173 3176 3178 3180 3182 3184 3185 3187 3188 3189 3190 3192 3195 3196 3198 3199 3200 3201 3202 3204 3205 3206 3207 3208 3210 3211 3212 3213 3214 3216 3217 3218 3219 3221 3222 3223 3224 3225 3226 3226 3228 3229 3230 3231 3232 3232
3136 3136 3135 3135 3136 3135 3134 3133 3132 3132 3133 3132 3133 3134 3134 3136 3140 3140 3139 3142 3146 3148 3152 3153 3154 3154 3154 3154 3155 3155 3156 3157 3157 3156 3157 3160 3162 3164 3166 3168 3171 3173 3175 3177 3179 3181 3182 3184 3185 3186 3186 3188 3189 3191 3193 3195 3196 3197 3198 3199 3200 3201 3202 3202 3203 3205 3207 3209 3210 3212 3213 3214 3215 3217 3218 3219 3220 3222 3223 3223 3224 3225 3226 3228 3229 3229 3229
3135 3135 3135 3134 3134 3134 3135 3136 3135 3135 3135 3135 3135 3135 3135 3135 3138 3140 3141 3144 3146 3148 3151 3153 3153 3153 3153 3153 3154 3154 3154 3156 3158 3158 3158 3161 3163 3165 3166 3168 3169 3171 3172 3174 3176 3178 3180 3182 3183 3184 3185 3186 3187 3188 3190 3191 3193 3194 3195 3196 3197 3198 3198 3198 3199 3200 3203 3205 3207 3208 3210 3211 3212 3214 3215 3216 3217 3218 3219 3220 3221 3222 3223 3225 3226 3226 3226
3136 3135 3135 3136 3137 3138 3139 3139 3138 3137 3137 3137 3136 3136 3137 3137 3139 3140 3143 3145 3147 3148 3149 3150 3151 3152 3153 3152 3153 3153 3153 3155 3156 3157 3159 3162 3163 3164 3165 3166 3168 3169 3170 3173 3175 3176 3178 3180 3181 3182 3183 3184 3185 3186 3187 3189 3190 3192 3193 3194 3195 3195 3195 3196 3197 3199 3200 3202 3204 3205 3206 3207 3208 3209 3211 3212 3213 3215 3216 3217 3217 3218 3220 3221 3222 3223 3224
3136 3136 3136 3138 3139 3140 3140 3140 3139 3139 3138 3138 3137 3136 3137 3139 3140 3141 3145 3147 3148 3147 3147 3148 3150 3151 3152 3152 3152 3153 3153 3154 3156 3158 3159 3162 3162 3163 3165 3166 3167 3168 3170 3173 3174 3176 3177 3178 3180 3181 3182 3183 3184 3185 3186 3187 3188 3189 3190 3191 3192 3192 3193 3194 3195 3196 3197 3199 3201 3202 3204 3204 3205 3205 3207 3208 3210 3211 3212 3212 3212 3214 3216 3217 3219 3220 3221
3136 3137 3138 3139 3139 3140 3141 3142 3142 3141 3140 3139 3138 3138 3140 3142 3142 3143 3145 3148 3149 3147 3147 3149 3150 3150 3150 3150 3151 3152 3152 3154 3156 3158 3160 3161 3162 3162 3164 3165 3166 3167 3169 3171 3173 3174 3176 3177 3178 3180 3181 3182 3182 3183 3184 3185 3186 3187 3188 3189 3190 3190 3191 3192 3193 3194 3195 3197 3199 3200 3202 3202 3202 3202 3203 3205 3206 3207 3208 3208 3209 3211 3212 3213 3215 3217 3218
3137 3138 3139 3140 3140 3141 3142 3143 3143 3143 3143 3142 3142 3143 3145 3145 3145 3145 3146 3148 3148 3147 3148 3150 3150 3149 3149 3149 3150 3151 3152 3153 3155 3157 3158 3160 3161 3161 3162 3164 3166 3166 3167 3169 3171 3172 3174 3176 3177 3178 3179 3180 3181 3182 3182 3183 3184 3185 3186 3187 3187 3188 3190 3190 3191 3192 3194 3195 3197 3198 3198 3199 3198 3199 3200 3202 3202 3203 3205 3206 3207 3208 3208 3209 3212 3213 3213
3137 3138 3139 3140 3141 3142 3143 3144 3144 3143 3144 3145 3146 3147 3148 3147 3147 3146 3147 3148 3147 3146 3148 3150 3150 3149 3148 3148 3149 3150 3152 3153 3154 3156 3157 3158 3159 3160 3162 3164 3166 3167 3168 3169 3170 3171 3173 3174 3175 3177 3178 3178 3179 3180 3181 3181 3182 3182 3183 3184 3185 3186 3187 3188 3189 3190 3192 3193 3194 3194 3195 3195 3195 3195 3196 3197 3199 3201 3203 3204 3204 3204 3204 3205 3207 3208 3208
3137 3138 3139 3140 3142 3143 3143 3143 3144 3144 3144 3145 3147 3148 3149 3149 3148 3147 3148 3150 3149 3149 3149 3149 3149 3149 3149 3149 3149 3150 3152 3154 3155 3156 3157 3159 3160 3161 3162 3164 3165 3167 3168 3170 3171 3172 3173 3174 3175 3176 3177 3178 3178 3179 3179 3179 3179 3180 3180 3181 3182 3184 3185 3186 3187 3189 3190 3191 3192 3192 3192 3192 3192 3192 3194 3196 3198 3200 3201 3201 3200 3201 3200 3200 3201 3202 3202
3137 3138 3139 3140 3142 3143 3143 3143 3143 3144 3145 3145 3146 3148 3150 3150 3149 3149 3150 3151 3152 3152 3152 3151 3150 3150 3150 3150 3150 3152 3153 3155 3156 3157 3158 3160 3161 3162 3163 3164 3165 3166 3167 3169 3171 3172 3173 3174 3175 3175 3176 3176 3177 3177 3177 3177 3177 3178 3178 3179 3180 3181 3183 3184 3185 3186 3187 3189 3190 3190 3190 3189 3189 3189 3192 3194 3195 3197 3198 3198 3197 3198 3196 3193 3193 3195 3197
3136 3137 3139 3141 3142 3142 3142 3142 3143 3144 3145 3145 3146 3148 3150 3150 3150 3150 3150 3152 3153 3153 3153 3152 3151 3151 3151 3152 3152 3153 3155 3156 3157 3158 3159 3160 3161 3162 3163 3163 3163 3165 3166 3167 3169 3171 3172 3173 3174 3174 3174 3175 3175 3175 3175 3175 3176 3176 3176 3177 3178 3179 3181 3182 3183 3183 3184 3185 3187 3188 3188 3187 3187 3188 3189 3190 3192 3194 3194 3194 3194 3195 3193 3189 3189 3192 3195
3136 3137 3138 3140 3142 3142 3142 3142 3142 3143 3144 3145 3146 3148 3149 3149 3150 3150 3150 3152 3153 3153 3153 3152 3152 3152 3153 3153 3154 3155 3155 3156 3157 3158 3158 3159 3160 3161 3162 3162 3162 3163 3165 3166 3167 3169 3170 3171 3171 3171 3172 3172 3172 3173 3173 3174 3175 3175 3176 3176 3177 3178 3179 3180 3181 3181 3181 3182 3184 3185 3185 3185 3186 3187 3188 3188 3190 3191 3191 3191 3192 3192 3192 3190 3189 3191 3193
3136 3137 3138 3140 3142 3143 3143 3143 3143 3143 3144 3145 3146 3147 3148 3148 3149 3149 3150 3151 3152 3153 3153 3152 3152 3153 3153 3154 3155 3155 3155 3156 3156 3157 3158 3158 3159 3160 3161 3161 3161 3162 3164 3165 3165 3166 3167 3169 3169 3169 3170 3170 3170 3171 3172 3173 3174 3174 3175 3176 3176 3177 3178 3178 3179 3180 3180 3180 3181 3182 3183 3184 3185 3186 3187 3187 3188 3189 3189 3189 3190 3190 3189 3189 3190 3191 3192
3137 3139 3140 3141 3142 3143 3143 3143 3143 3144 3144 3145 3146 3147 3147 3147 3148 3149 3150 3150 3151 3152 3153 3153 3153 3153 3154 3154 3155 3155 3156 3156 3157 3157 3158 3158 3159 3159 3160 3161 3161 3162 3163 3164 3165 3166 3166 3167 3168 3168 3169 3169 3169 3170 3171 3171 3172 3173 3174 3175 3175 3176 3176 3177 3178 3179 3179 3179 3179 3179 3181 3182 3184 3184 3184 3185 3186 3187 3187 3187 3187 3187 3187 3187 3189 3191 3191
3138 3139 3140 3141 3141 3142 3142 3143 3143 3143 3144 3145 3145 3146 3147 3147 3147 3148 3149 3150 3150 3151 3152 3152 3153 3153 3154 3155 3155 3155 3156 3157 3157 3158 3158 3159 3159 3159 3159 3160 3161 3162 3163 3164 3164 3165 3165 3166 3167 3168 3168 3169 3169 3169 3170 3170 3171 3172 3173 3174 3175 3175 3175 3176 3176 3177 3178 3178 3178 3178 3179 3180 3180 3181 3182 3182 3183 3184 3185 3185 3185 3186 3186 3186 3187 3188 3188
3138 3139 3140 3141 3141 3142 3142 3143 3143 3143 3144 3144 3145 3146 3146 3147 3147 3148 3149 3149 3150 3151 3151 3151 3152 3153 3153 3154 3155 3156 3157 3157 3158 3159 3159 3159 3159 3159 3160 3160 3161 3162 3163 3163 3164 3164 3165 3165 3166 3167 3168 3168 3168 3169 3169 3170 3170 3171 3172 3173 3174 3174 3174 3175 3175 3176 3176 3177 3177 3177 3177 3178 3178 3179 3179 3180 3181 3182 3183 3183 3183 3184 3185 3185 3185 3185 3184
3138 3139 3140 3141 3141 3142 3142 3143 3143 3143 3144 3144 3145 3146 3146 3147 3147 3147 3148 3149 3150 3151 3151 3151 3152 3153 3154 3154 3155 3156 3157 3158 3158 3159 3159 3159 3159 3159 3160 3160 3161 3162 3162 3163 3164 3164 3165 3165 3166 3166 3167 3168 3168 3168 3169 3169 3170 3170 3171 3171 3172 3173 3173 3174 3174 3175 3176 3176 3176 3176 3176 3176 3177 3177 3177 3178 3179 3179 3180 3181 3181 3182 3183 3183 3183 3183 3182
3138 3140 3141 3142 3142 3142 3143 3143 3143 3143 3144 3144 3145 3145 3146 3146 3147 3147 3148 3149 3149 3150 3151 3151 3152 3153 3154 3155 3156 3157 3157 3158 3158 3159 3159 3159 3159 3159 3159 3160 3160 3161 3162 3163 3163 3164 3164 3165 3166 3166 3167 3167 3167 3168 3168 3169 3169 3170 3170 3170 3171 3171 3172 3173 3173 3174 3175 3175 3175 3175 3175 3175 3176 3176 3176 3177 3177 3177 3178 3178 3179 3180 3181 3181 3181 3180 3180
3139 3139 3141 3142 3142 3143 3143 3143 3143 3143 3144 3144 3145 3145 3145 3146 3147 3147 3148 3148 3149 3150 3151 3151 3152 3152 3153 3154 3155 3156 3156 3157 3158 3158 3159 3158 3158 3159 3159 3159 3159 3160 3161 3162 3162 3163 3164 3164 3165 3165 3166 3166 3167 3167 3167 3168 3168 3169 3169 3169 3169 3170 3170 3171 3172 3172 3173 3174 3174 3174 3174 3174 3175 3175 3176 3176 3176 3176 3177 3177 3178 3178 3179 3179 3179 3179 3179
3140 3140 3140 3141 3143 3143 3142 3142 3142 3143 3143 3144 3144 3145 3145 3145 3146 3146 3147 3147 3148 3149 3150 3150 3151 3152 3152 3153 3154 3154 3155 3156 3157 3157 3158 3158 3158 3158 3158 3159 3159 3159 3160 3160 3161 3161 3162 3163 3163 3164 3164 3165 3166 3166 3166 3167 3167 3168 3168 3168 3168 3168 3169 3169 3170 3170 3171 3172 3172 3173 3173 3173 3174 3174 3174 3175 3175 3176 3176 3177 3177 3177 3177 3177 3177 3178 3179
3139 3139 3140 3141 3142 3142 3141 3141 3142 3142 3143 3143 3144 3144 3144 3144 3145 3145 3145 3146 3147 3148 3149 3149 3150 3151 3152 3152 3152 3153 3154 3155 3155 3156 3156 3157 3157 3157 3157 3158 3158 3159 3159 3159 3160 3160 3161 3161 3162 3162 3163 3163 3164 3164 3165 3165 3165 3166 3166 3167 3167 3167 3167 3167 3168 3168 3169 3170 3170 3171 3171 3172 3173 3173 3173 3174 3174 3175 3175 3176 3176 3176 3176 3176 3176 3177 3178
3137 3138 3139 3140 3140 3140 3140 3141 3142 3142 3142 3142 3143 3143 3144 3144 3144 3144 3145 3145 3145 3146 3147 3147 3148 3149 3150 3150 3151 3152 3152 3153 3153 3154 3154 3155 3155 3156 3156 3156 3157 3157 3158 3158 3158 3158 3159 3159 3160 3161 3161 3161 3162 3162 3163 3163 3164 3164 3164 3165 3165 3166 3166 3166 3167 3167 3167 3167 3168 3168 3169 3169 3170 3171 3171 3172 3172 3173 3173 3174 3174 3174 3175 3175 3175 3175 3176
3136 3136 3137 3139 3139 3139 3140 3140 3141 3141 3142 3142 3142 3143 3143 3143 3143 3143 3143 3144 3144 3144 3145 3146 3146 3147 3148 3149 3149 3150 3150 3151 3151 3152 3153 3153 3153 3154 3154 3155 3156 3156 3156 3156 3156 3157 3157 3158 3158 3158 3159 3159 3160 3160 3161 3161 3162 3162 3162 3162 3163 3163 3164 3165 3165 3165 3166 3166 3166 3166 3167 3167 3167 3168 3168 3169 3170 3170 3170 3171 3171 3172 3172 3172 3172 3173 3173
3134 3135 3136 3138 3138 3138 3139 3139 3139 3140 3141 3141 3141 3142 3142 3142 3142 3142 3142 3143 3143 3143 3143 3144 3144 3145 3146 3147 3147 3148 3148 3149 3149 3150 3150 3151 3151 3152 3152 3152 3153 3154 3154 3154 3154 3154 3155 3155 3156 3156 3156 3157 3157 3158 3158 3159 3159 3160 3160 3160 3161 3161 3161 3162 3162 3163 3163 3164 3164 3164 3165 3165 3165 3165 3166 3166 3167 3167 3167 3167 3168 3168 3169 3169 3169 3170 3170
3133 3134 3136 3137 3137 3137 3138 3138 3138 3138 3139 3140 3140 3140 3141 3141 3141 3141 3141 3141 3141 3141 3141 3142 3142 3143 3144 3144 3145 3146 3146 3146 3147 3147 3148 3149 3149 3149 3149 3149 3150 3151 3151 3151 3151 3152 3152 3152 3153 3154 3154 3154 3155 3155 3156 3156 3156 3157 3157 3158 3158 3158 3159 3159 3160 3160 3161 3161 3161 3162 3162 3162 3162 3163 3163 3163 3163 3164 3164 3165 3165 3165 3165 3165 3166 3166 3167
3132 3133 3134 3135 3135 3135 3136 3136 3137 3137 3138 3138 3138 3139 3139 3139 3140 3140 3140 3140 3140 3140 3140 3140 3141 3141 3141 3142 3143 3143 3144 3144 3145 3145 3146 3146 3147 3147 3147 3147 3147 3148 3148 3149 3149 3149 3149 3150 3150 3150 3151 3151 3152 3152 3153 3153 3153 3153 3154 3155 3155 3156 3156 3157 3157 3158 3158 3158 3159 3159 3159 3160 3160 3160 3160 3160 3160 3160 3161 3161 3161 3162 3162 3162 3163 3163 3163
3131 3132 3132 3133 3134 3134 3134 3135 3136 3136 3136 3137 3137 3137 3138 3138 3138 3139 3139 3139 3138 3138 3138 3139 3140 3140 3140 3139 3140 3141 3141 3142 3142 3142 3143 3144 3144 3144 3144 3144 3145 3145 3145 3145 3146 3146 3146 3147 3147 3147 3147 3148 3148 3149 3149 3149 3150 3150 3150 3151 3152 3153 3153 3153 3154 3155 3155 3156 3156 3156 3156 3157 3157 3157 3157 3157 3157 3157 3157 3158 3158 3158 3158 3159 3160 3160 3159
3129 3130 3131 3131 3132 3133 3133 3134 3134 3135 3135 3135 3136 3136 3136 3136 3137 3137 3138 3138 3137 3137 3136 3137 3137 3138 3137 3138 3138 3139 3139 3139 3139 3140 3140 3141 3141 3141 3141 3142 3142 3142 3141 3141 3141 3142 3143 3144 3144 3143 3143 3144 3145 3145 3146 3146 3146 3146 3147 3147 3148 3149 3150 3150 3151 3151 3152 3152 3152 3153 3153 3153 3154 3154 3153 3154 3154 3154 3154 3154 3154 3154 3154 3154 3155 3155 3155
3128 3128 3129 3130 3131 3131 3132 3132 3133 3133 3133 3133 3134 3134 3134 3135 3135 3135 3136 3136 3136 3135 3134 3135 3135 3135 3135 3136 3136 3136 3136 3136 3137 3137 3138 3138 3138 3138 3138 3138 3138 3138 3138 3138 3138 3137 3138 3139 3140 3139 3139 3140 3141 3142 3142 3142 3143 3143 3143 3144 3144 3145 3146 3146 3147 3147 3148 3148 3149 3149 3149 3150 3150 3150 3150 3150 3150 3150 3150 3150 3150 3150 3150 3150 3150 3151 3151
3126 3127 3128 3128 3129 3130 3130 3130 3131 3131 3131 3131 3132 3132 3132 3132 3133 3133 3133 3133 3133 3133 3133 3133 3133 3133 3133 3133 3133 3133 3133 3133 3134 3134 3134 3135 3135 3135 3135 3135 3135 3135 3135 3135 3135 3134 3134 3135 3136 3135 3135 3136 3137 3138 3139 3139 3139 3139 3140 3140 3140 3141 3142 3142 3143 3143 3143 3144 3144 3145 3145 3146 3146 3146 3147 3147 3147 3147 3147 3147 3146 3147 3147 3146 3146 3147 3147
3125 3125 3126 3127 3127 3128 3128 3128 3129 3129 3129 3130 3130 3130 3130 3130 3131 3131 3131 3131 3131 3131 3130 3131 3130 3130 3130 3130 3130 3131 3131 3131 3131 3131 3131 3131 3131 3131 3131 3131 3131 3131 3131 3131 3131 3130 3130 3130 3131 3131 3131 3131 3132 3134 3135 3135 3134 3135 3135 3135 3136 3137 3137 3138 3138 3139 3139 3139 3140 3140 3141 3141 3142 3142 3142 3143 3143 3143 3143 3143 3143 3143 3143 3142 3143 3143 3143
3124 3124 3124 3125 3126 3126 3127 3127 3127 3127 3128 3128 3128 3128 3128 3128 3129 3128 3128 3128 3128 3128 3128 3128 3128 3128 3127 3127 3127 3127 3127 3127 3127 3127 3127 3127 3127 3127 3127 3127 3127 3127 3126 3127 3127 3127 3126 3125 3126 3127 3127 3127 3127 3128 3130 3130 3130 3130 3130 3130 3131 3131 3133 3133 3134 3134 3134 3135 3136 3136 3137 3137 3137 3138 3138 3138 3139 3139 3140 3139 3139 3139 3139 3139 3139 3139 3139
3122 3122 3123 3123 3124 3125 3125 3125 3126 3126 3126 3126 3126 3126 3126 3126 3126 3126 3125 3126 3126 3125 3125 3125 3125 3124 3124 3124 3124 3124 3123 3123 3123 3123 3123 3123 3122 3122 3122 3122 3122 3122 3122 3122 3122 3123 3122 3122 3121 3122 3122 3122 3122 3121 3122 3124 3125 3125 3126 3126 3125 3125 3126 3128 3130 3130 3130 3131 3131 3132 3133 3133 3133 3134 3134 3134 3134 3134 3135 3135 3135 3136 3135 3135 3135 3134 3134
3120 3121 3121 3122 3122 3123 3123 3124 3124 3124 3124 3124 3124 3124 3124 3124 3124 3123 3123 3123 3122 3122 3122 3121 3121 3121 3120 3120 3120 3119 3119 3119 3118 3118 3117 3117 3117 3117 3117 3116 3116 3116 3116 3116 3117 3117 3117 3118 3118 3117 3117 3117 3117 3116 3116 3118 3119 3119 3119 3120 3120 3120 3121 3122 3124 3126 3127 3126 3126 3127 3127 3128 3129 3129 3129 3129 3129 3129 3130 3130 3130 3131 3131 3131 3131 3130 3130
3118 3119 3120 3120 3121 3121 3122 3122 3122 3122 3122 3122 3122 3122 3121 3121 3121 3121 3120 3119 3119 3118 3118 3117 3117 3116 3116 3115 3115 3114 3114 3114 3113 3113 3112 3111 3111 3111 3110 3110 3110 3110 3110 3110 3111 3111 3112 3113 3113 3113 3112 3112 3113 3113 3113 3113 3113 3113 3113 3113 3114 3116 3116 3116 3117 3120 3121 3121 3121 3122 3123 3124 3124 3124 3125 3125 3125 3125 3125 3125 3125 3126 3126 3126 3126 3126 3126
3116 3117 3118 3118 3119 3119 3119 3119 3119 3119 3119 3119 3119 3118 3118 3118 3117 3117 3116 3116 3115 3114 3113 3113 3112 3112 3111 3110 3109 3109 3109 3108 3108 3107 3106 3106 3105 3105 3104 3104 3104 3104 3104 3104 3105 3105 3106 3106 3107 3107 3107 3107 3107 3108 3108 3109 3110 3110 3110 3109 3110 3111 3111 3112 3113 3114 3115 3115 3115 3116 3118 3119 3119 3119 3119 3120 3120 3120 3121 3121 3121 3121 3121 3121 3121 3121 3121
3115 3115 3116 3116 3116 3116 3116 3116 3116 3116 3116 3116 3115 3115 3114 3114 3114 3113 3112 3111 3111 3110 3109 3108 3108 3107 3106 3105 3104 3103 3103 3102 3102 3101 3101 3100 3100 3099 3099 3099 3099 3098 3098 3099 3099 3099 3100 3100 3101 3101 3101 3101 3102 3102 3103 3103 3104 3105 3106 3105 3105 3106 3106 3108 3109 3110 3109 3109 3110 3111 3113 3114 3115 3114 3115 3115 3114 3114 3115 3116 3117 3117 3117 3117 3117 3116 3116
3113 3113 3114 3114 3114 3114 3114 3114 3113 3113 3113 3113 3112 3111 3111 3110 3110 3109 3108 3107 3106 3106 3105 3104 3103 3102 3101 3100 3099 3098 3098 3097 3097 3096 3096 3095 3095 3094 3094 3094 3094 3094 3093 3093 3093 3093 3093 3094 3094 3095 3096 3096 3096 3096 3097 3098 3098 3099 3100 3100 3100 3101 3102 3103 3105 3105 3105 3105 3106 3106 3107 3109 3109 3109 3110 3110 3110 3109 3109 3110 3111 3111 3112 3112 3112 3112 3112
3111 3111 3111 3111 3111 3111 3110 3110 3109 3109 3109 3109 3109 3108 3107 3107 3106 3105 3104 3103 3103 3102 3101 3100 3098 3097 3096 3096 3095 3094 3093 3092 3092 3091 3091 3090 3089 3089 3088 3089 3089 3089 3088 3088 3088 3088 3088 3089 3089 3089 3090 3090 3090 3090 3091 3092 3093 3094 3094 3094 3095 3096 3097 3098 3099 3100 3101 3101 3101 3102 3102 3103 3104 3104 3104 3104 3104 3104 3105 3105 3105 3105 3106 3106 3107 3107 3107
3108 3108 3108 3108 3108 3108 3107 3107 3106 3105 3105 3105 3105 3104 3104 3103 3102 3101 3100 3099 3099 3098 3097 3095 3094 3093 3092 3091 3090 3089 3089 3088 3087 3087 3086 3085 3085 3084 3083 3084 3084 3084 3083 3083 3083 3084 3084 3084 3084 3084 3085 3085 3085 3085 3087 3088 3089 3089 3090 3091 3091 3091 3091 3093 3094 3095 3097 3098 3097 3097 3098 3099 3099 3099 3099 3099 3099 3099 3100 3100 3100 3100 3100 3101 3101 3101 3101
3106 3105 3105 3105 3105 3104 3104 3103 3103 3102 3101 3101 3101 3101 3100 3099 3098 3097 3096 3095 3094 3093 3092 3092 3090 3089 3088 3087 3086 3085 3085 3084 3083 3082 3081 3081 3080 3080 3079 3078 3079 3078 3078 3078 3079 3079 3079 3079 3079 3080 3081 3082 3082 3082 3083 3084 3084 3084 3085 3086 3086 3086 3087 3088 3089 3091 3092 3093 3093 3093 3094 3095 3095 3095 3095 3094 3095 3095 3095 3095 3095 3095 3095 3096 3095 3095 3095
3103 3102 3102 3102 3102 3101 3101 3100 3100 3099 3098 3097 3097 3097 3096 3095 3095 3094 3093 3091 3091 3090 3089 3088 3087 3086 3085 3084 3083 3082 3081 3080 3079 3077 3076 3076 3076 3076 3075 3074 3073 3073 3074 3075 3075 3074 3074 3074 3075 3077 3078 3079 3079 3079 3079 3080 3080 3080 3080 3081 3082 3083 3083 3084 3085 3086 3087 3088 3088 3089 3090 3090 3090 3090 3090 3090 3091 3091 3091 3091 3090 3090 3090 3090 3090 3090 3090
3100 3099 3099 3099 3098 3098 3098 3097 3097 3097 3095 3094 3094 3094 3093 3092 3091 3090 3089 3088 3087 3086 3086 3085 3084 3083 3082 3081 3079 3078 3077 3076 3075 3073 3072 3072 3072 3071 3071 3070 3070 3070 3070 3071 3070 3070 3071 3071 3072 3073 3074 3075 3075 3075 3075 3076 3077 3076 3076 3076 3078 3078 3079 3079 3080 3081 3082 3083 3083 3084 3085 3085 3085 3085 3086 3086 3087 3087 3087 3086 3086 3085 3085 3085 3086 3086 3086
3097 3097 3096 3096 3095 3095 3095 3094 3094 3093 3093 3092 3091 3091 3090 3089 3088 3087 3086 3085 3084 3084 3083 3082 3081 3080 3079 3078 3076 3075 3074 3073 3071 3070 3069 3068 3068 3067 3067 3067 3066 3066 3067 3066 3066 3066 3067 3067 3068 3069 3069 3070 3070 3071 3071 3072 3072 3072 3072 3072 3073 3074 3075 3075 3075 3076 3077 3078 3078 3078 3079 3080 3081 3081 3081 3082 3082 3082 3082 3082 3082 3081 3081 3081 3081 3081 3081
3094 3094 3093 3093 3093 3092 3092 3092 3091 3090 3090 3089 3088 3087 3087 3086 3085 3084 3084 3083 3082 3081 3080 3079 3078 3077 3076 3075 3074 3072 3071 3070 3068 3067 3066 3065 3064 3064 3064 3064 3063 3063 3063 3063 3063 3063 3063 3063 3064 3065 3065 3065 3065 3066 3067 3068 3068 3068 3068 3069 3069 3070 3070 3071 3072 3072 3073 3073 3073 3073 3074 3075 3077 3077 3076 3077 3077 3077 3077 3078 3078 3077 3077 3077 3076 3076 3076
3091 3091 3090 3090 3090 3089 3089 3089 3088 3088 3087 3086 3086 3085 3084 3083 3083 3082 3081 3081 3080 3079 3078 3077 3076 3075 3074 3073 3072 3070 3069 3067 3066 3064 3063 3062 3062 3061 3061 3061 3061 3060 3060 3059 3059 3060 3060 3060 3060 3061 3061 3061 3062 3062 3063 3063 3064 3064 3064 3065 3065 3066 3067 3067 3068 3068 3068 3068 3069 3070 3071 3072 3072 3072 3072 3072 3072 3072 3072 3073 3072 3072 3072 3072 3072 3071 3071
3089 3088 3088 3088 3087 3087 3086 3086 3086 3085 3085 3084 3083 3082 3081 3081 3080 3080 3080 3079 3078 3077 3076 3076 3075 3074 3073 3072 3070 3069 3067 3066 3064 3063 3061 3060 3059 3059 3058 3058 3057 3057 3057 3056 3056 3056 3056 3057 3057 3058 3058 3058 3059 3059 3059 3059 3060 3060 3061 3061 3062 3063 3063 3063 3064 3064 3065 3066 3066 3067 3067 3067 3067 3067 3067 3067 3067 3067 3067 3067 3067 3067 3067 3067 3067 3066 3066
3087 3086 3085 3085 3085 3085 3084 3083 3083 3082 3082 3081 3081 3080 3079 3079 3078 3078 3078 3077 3077 3076 3075 3074 3073 3073 3072 3071 3069 3068 3067 3065 3063 3061 3060 3059 3057 3057 3056 3055 3055 3054 3054 3053 3053 3053 3053 3053 3054 3054 3055 3056 3056 3056 3056 3056 3057 3057 3057 3058 3058 3059 3059 3060 3061 3061 3062 3062 3062 3063 3063 3063 3063 3063 3063 3063 3063 3063 3062 3062 3062 3063 3063 3062 3062 3061 3061
3084 3084 3083 3083 3082 3082 3082 3081 3080 3080 3079 3079 3078 3078 3078 3077 3077 3077 3076 3076 3075 3074 3074 3073 3072 3071 3071 3070 3068 3067 3065 3064 3063 3061 3059 3058 3056 3055 3054 3053 3053 3052 3051 3051 3051 3051 3051 3051 3051 3051 3052 3053 3053 3053 3053 3053 3053 3054 3054 3054 3055 3055 3056 3057 3057 3058 3058 3058 3059 3059 3059 3059 3059 3058 3058 3058 3058 3058 3058 3057 3057 3058 3058 3057 3057 3057 3057
3082 3082 3081 3081 3080 3080 3079 3079 3078 3078 3077 3077 3076 3076 3076 3076 3076 3076 3075 3075 3074 3074 3073 3072 3071 3070 3069 3069 3068 3066 3065 3064 3062 3061 3059 3058 3057 3055 3054 3053 3052 3051 3050 3049 3049 3049 3049 3049 3049 3049 3050 3050 3050 3050 3050 3050 3050 3050 3050 3051 3052 3053 3053 3054 3054 3054 3054 3055 3055 3055 3054 3054 3054 3054 3054 3054 3053 3053 3053 3053 3053 3053 3053 3053 3052 3052 3052